Location: Home
(42.5358°N, 72.7383°W)
Time: 08:25:25
(UTC-05:00)

Envisat - Pass Details

Date: 25 October 2021
Orbit: 764 x 766 km, 98.2° (Epoch: 07 December)

Event Time Altitude Azimuth Distance (km) Brightness Sun altitude
Rises 04:42:54 0° 30° (NNE) 3,240 6.8 -28.8°
Reaches altitude 10° 04:46:04 10° 51° (NE) 2,308 6.2 -28.2°
Maximum altitude 04:49:17 17° 91° (E) 1,878 5.8 -27.6°
Drops below altitude 10° 04:52:29 10° 130° (SE) 2,296 5.9 -27.1°
Sets 04:55:36 0° 151° (SSE) 3,216 6.5 -26.5°
